Regional Weather Roundup
Issued by NWS

Home | Current Version | Previous Version | Graphics & Text | Print | Product List | Glossary On
Versions: 1 2 3 4 5 6 7 8 9 10 11 12 13 14 15 16 17 18 19 20 21 22 23 24 25 26 27 28 29 30 31 32 33 34 35 36 37 38 39 40 41 42 43 44 45 46 47 48 49 50
000
ASUS43 KIND 251800
RWRIN

WEATHER ROUNDUP FOR INDIANA
NATIONAL WEATHER SERVICE INDIANAPOLIS IN
200 PM EDT MON SEP 25 2017

NOTE: "FAIR" INDICATES FEW OR NO CLOUDS BELOW 12,000 FEET WITH NO
SIGNIFICANT WEATHER AND/OR OBSTRUCTIONS TO VISIBILITY.

* - STATION DOES NOT REPORT WEATHER SUCH AS PRECIPITATION OR FOG.

+ - STATION NOT QUALITY CONTROLLED BY THE NATIONAL WEATHER SERVICE.
    USE DATA WITH CAUTION...ESPECIALLY DEWPOINT AND RELATIVE
    HUMIDITY OBSERVATIONS.

INZ001>003-010>013-019-020-251900-
NORTHWEST INDIANA

CITY           SKY/WX    TMP DP  RH WIND       PRES   REMARKS
GARY /AIRPORT/ PTSUNNY   90  46  22 SE7       30.00F

$$

LMZ046-743>745-251900-
SOUTHERN LAKE MICHIGAN

STATION/POSITION TIME  TEMP    WIND        PRES    WAVE
                       AIR SEA DIR/SP/G            HT
                 (UTC) (F)     (DEG/KT/KT) (MB)    (FT)
BURNS HARBOR     1740   80      10/  5/  6 1016.3F
MICHIGAN CITY    1730   84     100/  4/  6   N/A
5NW MICH CITY    1750   79 75   90/  4/  4   N/A     0

$$

INZ004-005-014>016-021>024-251900-
NORTH CENTRAL INDIANA

CITY           SKY/WX    TMP DP  RH WIND       PRES   REMARKS
GOSHEN         MOSUNNY   86  51  29 CALM      30.03F
6HR MIN TEMP:  57; 6HR MAX TEMP:  87;

SOUTH BEND     MOSUNNY   86  54  33 VRB3      30.03F
6HR MIN TEMP:  62; 6HR MAX TEMP:  86; 6HR PCP: TRACE;


$$

INZ006>009-017-018-025>027-251900-
NORTHEAST INDIANA

CITY           SKY/WX    TMP DP  RH WIND       PRES   REMARKS
FORT WAYNE     PTSUNNY   87  56  34 W5        30.04F
6HR MIN TEMP:  60; 6HR MAX TEMP:  88;

KENDALLVILLE + SUNNY     86  58  39 CALM      30.05F

$$

INZ028-029-035-036-043>045-051>053-251900-
WEST CENTRAL INDIANA

CITY           SKY/WX    TMP DP  RH WIND       PRES   REMARKS
LAFAYETTE      NOT AVBL
TERRE HAUTE    SUNNY     89  61  38 CALM      30.01F
6HR MIN TEMP:  62; 6HR MAX TEMP:  89;


$$

INZ030>032-037>040-046>048-054>057-064-065-251900-
CENTRAL INDIANA

CITY           SKY/WX    TMP DP  RH WIND       PRES   REMARKS
ANDERSON       SUNNY     86  59  39 CALM      30.05F
GREENWOOD *+   SUNNY    N/A N/A N/A CALM      30.03F
INDIANAPOLIS   MOSUNNY   88  58  36 CALM      30.02F
6HR MIN TEMP:  67; 6HR MAX TEMP:  88;

-EAGLE CREEK   SUNNY     88  56  33 E3        30.01F
6HR MIN TEMP:  62; 6HR MAX TEMP:  88;

KOKOMO +       SUNNY     87  57  35 SW3       30.03F
6HR MIN TEMP:  58; 6HR MAX TEMP:  88;

MT COMFORT *+  SUNNY     86  57  37 SW3       30.04F
SHELBYVILLE    SUNNY     85  59  41 VRB3      30.02F
6HR MIN TEMP:  60; 6HR MAX TEMP:  87;


$$

INZ033-034-041-042-049-050-058-059-251900-
EAST CENTRAL INDIANA

CITY           SKY/WX    TMP DP  RH WIND       PRES   REMARKS
MUNCIE         SUNNY     88  55  32 E5        30.03F
6HR MIN TEMP:  59; 6HR MAX TEMP:  89;

RICHMOND +     SUNNY     84  59  42 SW3       30.06F

$$

INZ060-061-067>069-081>083-085>088-251900-
SOUTHWEST INDIANA

CITY           SKY/WX    TMP DP  RH WIND       PRES   REMARKS
EVANSVILLE     MOSUNNY   86  65  49 VRB3      30.01F
6HR MIN TEMP:  67; 6HR MAX TEMP:  88;

HUNTINGBURG +  SUNNY     87  68  52 E7        30.01
6HR MIN TEMP:  64; 6HR MAX TEMP:  87;


$$

INZ062-063-066-070>080-084-089>092-251900-
SOUTH CENTRAL AND SOUTHEAST INDIANA

CITY           SKY/WX    TMP DP  RH WIND       PRES   REMARKS
BLOOMINGTON    PTSUNNY   86  60  41 W3        30.02F
6HR MIN TEMP:  60; 6HR MAX TEMP:  89;

MADISON *+     SUNNY     84  63  48 CALM      30.06S
SEYMOUR +      SUNNY     90  63  40 E3        30.02F

$$





USA.gov is the U.S. government's official web portal to all federal, state and local government web resources and services.